Location: Heilwood
(40.6210°N, 78.9150°W)
Time: 18:29:23
(UTC-04:00)

BREEZE-M DEB (TANK) - Visible Passes

Search period start: 26 March 2015 00:00
Search period end: 05 April 2015 00:00
Orbit: 326 x 15958 km, 49.5° (Epoch: 26 March)

Date Brightness Start Highest point End Pass type
(mag) Time Alt. Az. Time Alt. Az. Time Alt. Az.
26 Mar 5.4 01:46:49 46° NW 01:50:05 60° N 02:37:59 10° E visible
27 Mar 5.6 01:57:34 38° NW 02:02:17 61° N 02:57:12 10° E visible
28 Mar 5.9 02:08:13 29° WNW 02:14:30 63° NNE 03:17:05 10° ESE visible
29 Mar 6.1 02:18:48 21° WNW 02:26:41 65° NNE 03:37:22 10° ESE visible
30 Mar 6.3 02:29:17 14° WNW 02:38:52 68° NNE 03:57:38 10° ESE visible
30 Mar 6.0 21:49:35 15° ENE 21:49:35 15° ENE 21:51:37 10° ENE visible
31 Mar 6.4 02:40:10 10° WNW 02:51:02 71° NNE 04:17:30 10° ESE visible
31 Mar 5.5 21:59:48 21° ENE 21:59:48 21° ENE 22:04:03 10° ENE visible
01 Apr 6.5 02:51:37 10° WNW 03:03:11 74° NNE 04:36:39 10° SE visible
01 Apr 4.9 22:09:48 30° ENE 22:09:48 30° ENE 22:16:31 10° ENE visible
02 Apr 6.6 03:03:01 10° WNW 03:15:20 78° NNE 04:54:55 10° SE visible
02 Apr 4.0 22:19:22 50° ENE 22:19:22 50° ENE 22:29:01 10° ENE visible
03 Apr 6.7 03:14:23 10° WNW 03:27:29 81° NNE 05:12:14 10° SE visible
03 Apr 3.3 22:25:32 10° WSW 22:29:04 80° NNW 22:41:39 10° ENE visible
04 Apr 6.8 03:25:43 10° WNW 03:39:39 86° NNE 05:28:37 10° SE visible
04 Apr 3.7 22:36:44 10° WSW 22:40:30 70° NNW 22:54:25 10° ENE visible
